Torna al catalogo

STARLINK-37540

AttivoComunicazioniSSO
NORAD 68914·PAYLOAD·🇺🇸 United States

Lanciato Apr 30, 2026 da Vandenberg Space Force Base

Loading…

Prossimi Passaggi (prossime 24 ore)

TLE

AggiornatoSource: CelesTrak SupGP

Epoca: Sep 14, 2026, 21:25 UTC

1 68914C 26097V   26257.89284722  .00087724  00000+0  27238-2 0  2574
2 68914  97.2852  92.1302 0001616  97.1198 263.6905 15.33387031    15

Traccia STARLINK-37540 in tempo reale con AllMySat

Download on the App Store